Reno, NV

4:49 AM PDT on July 26, 2017 (GMT -0700)
Reno-Tahoe International

Weather History for KRNO - August, 2013

Change the Weather History Date:

Friday, August 2, 2013

  Actual Average Record
Temperature  
Mean Temperature 71 °F 76 °F  
Max Temperature 88 °F 93 °F 101 °F (1946)
Min Temperature 53 °F 58 °F 37 °F (1944)
Degree Days  
Heating Degree Days 0 0  
Month to date heating degree days 0 0  
Since 1 June heating degree days 16 61  
Since 1 July heating degree days 0 5  
Cooling Degree Days 6 11  
Month to date cooling degree days 12 22  
Year to date cooling degree days 751 509  
Since 1 June cooling degree days 715 472  
Growing Degree Days 20 (Base 50)    
Moisture  
Dew Point 25 °F    
Average Humidity 21    
Maximum Humidity 35    
Minimum Humidity 6    
Precipitation  
Precipitation 0.00 in 0.01 in 0.93 in (1912)
Month to date precipitation 0.00 0.02  
Year to date precipitation 1.96 4.48  
Snow  
Snow 0.00 in 0.00 in 0.00 in ()
Month to date snowfall 0.0 0.0  
Since 1 June snowfall 0.0 T  
Since 1 July snowfall 0.0 0.0  
Snow Depth 0.00 in    
Sea Level Pressure  
Sea Level Pressure 29.92 in    
Wind  
Wind Speed 6 mph (NNW)    
Max Wind Speed 20 mph    
Max Gust Speed 24 mph    
Visibility 10 miles    
Events      
T = Trace of Precipitation, MM = Missing Value Source: NWS Daily Summary

Daily Weather History Graph

Daily Weather History Graph

Search for Another Location

Airport or City:

Trip Planner

Search our weather history database for the weather conditions in past years. The results will help you decide how hot, cold, wet, or windy it might be!

Date:

Astronomy

Aug. 02, 2013 Rise Set
Actual Time 5:59 AM PDT 8:10 PM PDT
Civil Twilight 5:29 AM PDT 8:39 PM PDT
Nautical Twilight 4:53 AM PDT 9:16 PM PDT
Astronomical Twilight 4:13 AM PDT 9:56 PM PDT
Moon 2:24 AM PDT (8/2) 5:11 PM PDT (8/2)
Length of Visible Light 15h 10m
Length of Day
14h 10m
Waning Crescent, 15% of the Moon is Illuminated
Aug 2
Waning Crescent
Aug 6
New
Aug 14
First Quarter
Aug 20
Full
Aug 28
Last Quarter

Hourly Weather History & Observations

Time (PDT) Temp. Dew Point Humidity Pressure Visibility Wind Dir Wind Speed Gust Speed Precip Events Conditions
12:55 AM 63.0 °F 27.0 °F 26% 29.95 in 10.0 mi Calm Calm - N/A   Clear
1:55 AM 60.1 °F 26.1 °F 27% 29.96 in 10.0 mi Calm Calm - N/A   Clear
2:55 AM 59.0 °F 26.1 °F 28% 29.97 in 10.0 mi Calm Calm - N/A   Clear
3:55 AM 57.0 °F 24.1 °F 28% 29.95 in 10.0 mi WNW 8.1 mph - N/A   Clear
4:55 AM 54.0 °F 26.1 °F 34% 29.96 in 10.0 mi Calm Calm - N/A   Clear
5:55 AM 53.1 °F 25.0 °F 34% 29.99 in 10.0 mi Variable 4.6 mph - N/A   Clear
6:55 AM 54.0 °F 26.1 °F 34% 29.99 in 10.0 mi WNW 3.5 mph - N/A   Partly Cloudy
7:55 AM 57.9 °F 28.0 °F 32% 29.99 in 10.0 mi Calm Calm - N/A   Clear
8:55 AM 63.0 °F 28.0 °F 27% 29.99 in 10.0 mi Calm Calm - N/A   Clear
9:55 AM 68.0 °F 27.0 °F 21% 29.98 in 10.0 mi Calm Calm - N/A   Clear
10:55 AM 73.0 °F 28.0 °F 19% 29.95 in 10.0 mi East 3.5 mph - N/A   Clear
11:55 AM 75.9 °F 27.0 °F 16% 29.93 in 10.0 mi NNE 4.6 mph - N/A   Clear
12:55 PM 81.0 °F 23.0 °F 12% 29.90 in 10.0 mi Variable 6.9 mph - N/A   Clear
1:55 PM 81.0 °F 21.9 °F 11% 29.88 in 10.0 mi ENE 4.6 mph - N/A   Clear
2:55 PM 84.9 °F 21.0 °F 10% 29.86 in 10.0 mi South 11.5 mph - N/A   Clear
3:55 PM 84.9 °F 21.0 °F 10% 29.84 in 10.0 mi NE 9.2 mph 18.4 mph N/A   Partly Cloudy
4:55 PM 86.0 °F 19.0 °F 8% 29.83 in 10.0 mi Variable 6.9 mph - N/A   Clear
5:55 PM 87.1 °F 12.9 °F 6% 29.83 in 10.0 mi WNW 12.7 mph - N/A   Clear
6:55 PM 84.0 °F 17.1 °F 8% 29.84 in 10.0 mi West 12.7 mph - N/A   Clear
7:55 PM 81.0 °F 25.0 °F 13% 29.85 in 10.0 mi West 15.0 mph - N/A   Clear
8:55 PM 77.0 °F 30.0 °F 18% 29.88 in 10.0 mi NW 8.1 mph - N/A   Clear
9:55 PM 75.0 °F 30.9 °F 20% 29.90 in 10.0 mi NNW 17.3 mph 23.0 mph N/A   Clear
10:55 PM 73.0 °F 32.0 °F 22% 29.91 in 10.0 mi NW 9.2 mph - N/A   Clear
11:55 PM 69.1 °F 33.1 °F 26% 29.92 in 10.0 mi NNE 3.5 mph - N/A   Clear